EST,Max TemperatureF,Mean TemperatureF,Min TemperatureF,Max Dew PointF,MeanDew PointF,Min DewpointF,Max Humidity, Mean Humidity, Min Humidity, Max Sea Level PressureIn, Mean Sea Level PressureIn, Min Sea Level PressureIn, Max VisibilityMiles, Mean VisibilityMiles, Min VisibilityMiles, Max Wind SpeedMPH, Mean Wind SpeedMPH, Max Gust SpeedMPH,PrecipitationIn, CloudCover, Events, WindDirDegrees
2012-12-1,59,46,34,43,39,31,86,67,54,30.28,30.23,30.17,8,6,5,13,8,,0.00,4,,194
2012-12-2,55,52,50,55,50,42,100,89,64,30.16,30.10,30.06,8,3,0,17,12,24,0.29,8,Fog-Rain,213
2012-12-3,64,59,54,57,55,49,100,90,73,30.17,30.13,30.08,8,4,0,13,7,,0.03,6,Fog-Rain,199
2012-12-4,61,50,37,56,48,37,96,85,69,30.21,30.07,30.00,8,4,0,22,12,29,0.48,7,Fog-Rain,247
2012-12-5,38,31,24,36,29,20,100,83,55,30.40,30.32,30.20,8,6,2,12,7,,0.00,1,,346
2012-12-6,41,32,24,40,30,19,93,81,71,30.34,30.14,30.00,7,6,2,13,9,,0.06,3,Rain,131
2012-12-7,51,46,41,50,45,39,100,96,87,30.03,29.95,29.85,4,2,0,12,4,,0.57,8,Fog-Rain,167
2012-12-8,51,46,38,49,46,37,100,92,86,30.08,29.92,29.84,5,3,1,14,8,,0.07,7,Rain,269
2012-12-9,55,46,37,54,44,35,100,92,86,30.09,29.90,29.71,6,4,1,18,12,21,0.39,8,Rain,135
2012-12-10,53,40,28,52,37,26,100,90,79,29.95,29.74,29.67,7,4,1,16,12,21,0.02,8,Rain,287
2012-12-11,30,28,24,28,25,19,93,83,67,30.27,30.06,29.92,7,4,2,14,10,,0.00,7,Rain,250
2012-12-12,38,29,20,24,21,17,89,75,53,30.44,30.40,30.29,8,6,4,8,5,,0.00,0,,170
2012-12-13,43,30,17,27,21,14,92,72,45,30.45,30.39,30.29,7,6,3,8,5,,0.00,0,,151
2012-12-14,50,40,29,28,25,22,82,65,33,30.33,30.27,30.20,8,6,5,13,8,,0.00,0,,203
2012-12-15,50,40,32,40,34,25,80,69,61,30.19,29.98,29.81,8,6,2,13,7,,0.02,5,Rain,162
2012-12-16,57,50,43,50,46,40,86,79,67,29.78,29.74,29.67,7,6,5,18,11,24,0.00,4,,218
2012-12-17,45,40,36,43,40,36,100,95,85,29.77,29.67,29.57,6,1,0,8,4,,0.41,7,Fog-Rain-Thunderstorm,13
2012-12-18,39,36,34,37,33,30,93,88,75,29.88,29.77,29.61,7,4,2,17,10,23,0.00,7,,270
2012-12-19,43,38,33,34,33,30,89,79,68,30.12,30.01,29.78,7,4,2,21,12,26,0.00,5,,256
2012-12-20,48,39,30,46,38,23,93,84,67,29.98,29.48,29.27,8,4,1,36,19,48,0.80,7,Rain-Snow,179
2012-12-21,30,28,26,24,23,21,88,83,74,30.02,29.68,29.42,7,3,1,36,27,44,0.00,8,Rain-Snow,273
2012-12-22,28,24,20,21,19,15,81,77,63,30.23,30.13,30.02,8,7,6,20,15,30,0.00,5,,267
2012-12-23,38,30,23,26,21,15,85,72,60,30.09,30.00,29.96,8,6,6,9,7,,0.00,0,,246
2012-12-24,34,28,22,33,28,19,100,91,81,30.02,29.87,29.76,6,2,0,15,7,20,0.00,7,Fog,7
2012-12-25,31,30,28,28,26,23,93,86,75,30.22,30.14,29.99,7,4,1,20,9,26,0.00,8,Rain,16
2012-12-26,31,28,24,27,25,19,93,88,75,30.06,29.68,29.57,8,2,0,29,22,37,0.16,8,Fog-Snow-Thunderstorm,31
2012-12-27,27,25,23,21,20,18,86,81,78,30.21,30.11,29.91,8,6,4,18,10,22,0.01,8,Snow,292
2012-12-28,30,24,17,25,20,15,93,86,75,30.20,30.09,29.85,7,4,2,13,3,,0.02,4,Snow,104
2012-12-29,28,26,23,25,23,19,96,89,80,30.19,29.86,29.72,4,2,0,22,9,26,0.13,8,Fog-Snow,324
2012-12-30,24,22,19,19,15,12,85,78,65,30.45,30.38,30.20,7,6,4,16,13,,0.00,4,Snow,246
2012-12-31,32,26,20,28,25,16,93,85,64,30.33,30.13,30.05,7,3,1,17,11,23,0.01,6,Snow,229